Regional Weather Roundup
Issued by NWS Grand Forks, ND

Home | Current Version | Previous Version | Graphics & Text | Print | Product List | Glossary On
Versions: 1 2 3 4 5 6 7 8 9 10 11 12 13 14 15 16 17 18 19 20 21 22 23 24 25 26 27 28 29 30 31 32 33 34 35 36 37 38 39 40 41 42 43 44 45 46 47 48 49 50
000
ASUS43 KFGF 011310
RWRFGF
PRAIRIE TO PINES  WEATHER ROUNDUP
NATIONAL WEATHER SERVICE EASTERN NORTH DAKOTA/GRAND FORKS ND
800 AM CDT WED JUL 01 2015

 **SATELLITE DATA USED TO AUGMENT SKY COVER AT AUTOMATED STATIONS**
 *****  WEATHER ACROSS EASTERN NORTH DAKOTA  *****

CITY           SKY/WX    TMP DP  RH WIND       PRES   REMARKS
GRAND FORKS    SUNNY     61  56  83 CALM      29.94R
GRAND FRKS AFB SUNNY     60  59  97 N2        29.95R
GRAND FRKS NWS   N/A     61 N/A N/A S2          N/A
DEVILS LAKE    SUNNY     63  57  82 SE3       29.95R
FARGO          MOSUNNY   67  62  84 S3        29.95R
WAHPETON ARPT  CLOUDY    61  57  88 SE5       29.96S
$$

 ***** WEATHER ACROSS CENTRAL AND WESTERN NORTH DAKOTA  *****

CITY           SKY/WX    TMP DP  RH WIND       PRES   REMARKS
BISMARCK       CLOUDY    64  63  96 NE6       29.95R FOG
MINOT          FOG       63  62  97 CALM      29.95R VSB 1/4
JAMESTOWN      CLOUDY    64  60  87 E5        29.94S
MINOT AFB      FOG       63  63 100 NW5       29.94R VSB 1/2
GARRISON         N/A     61  60  97 N3        29.95R
WILLISTON      CLOUDY    63  60  90 NE7       29.98R FOG
DICKINSON      CLOUDY    63  60  90 NE9       29.95R FOG
HETTINGER      FOG       61  60  97 NE7       29.96R VSB 1/4
$$

 *****  OTHER AIRPORT OBSERVATIONS IN OUR AREA  *****

CITY           SKY/WX    TMP DP  RH WIND       PRES   REMARKS
WALHALLA       FAIR      59  59 100 MISG      29.96R
GRAFTON AIRPOR FAIR      63  63 100 CALM      29.95S
VALLEY CITY AR CLOUDY    63  63 100 E5        29.95F
CANDO          FAIR      59  59 100 SE3       29.96S
CAVALIER APRT  FAIR      63  59  88 CALM      29.95S
GWINNER        NOT AVBL
ROLLA          FAIR      55  55 100 CALM      29.98S
 ***** THE ABOVE OBSERVATIONS ARE NON NWS ARE NOT QUALITY
       CONTROLLED AND MAY MIS-REPORT RAIN FOR SNOW...
$$

  *****  WEATHER ACROSS NORTHERN MINNESOTA  *****

CITY           SKY/WX    TMP DP  RH WIND       PRES   REMARKS
FLAG ISLAND    SUNNY     64  55  72 S3        29.95S
WARROAD        SUNNY     61  57  88 CALM      29.97S
ROSEAU         SUNNY     63  57  82 S3        29.96S
HALLOCK        SUNNY     63  59  88 CALM      29.94S
THF RVR FALLS  SUNNY     61  55  82 E3        29.96S
BAUDETTE       SUNNY     58  53  84 SE3       29.97S
WASKISH        SUNNY     61  57  88 CALM      29.98S FOG
CROOKSTON      SUNNY     64  57  77 SE3       29.95S
$$
  *****  WEATHER ACROSS CENTRAL AND WEST MINNESOTA  *****

CITY           SKY/WX    TMP DP  RH WIND       PRES   REMARKS
FOSSTON        MOSUNNY   63  57  82 CALM      29.97R
BEMIDJI        SUNNY     62  57  85 SE5       29.98S
PARK RAPIDS    MOSUNNY   63  57  81 SE7       29.98S
ELBOW LAKE     PTSUNNY   62  59  91 S7        29.97R
WADENA           N/A     63  57  82 SE3       29.98R
DETROIT LAKES  PTSUNNY   64  61  88 S6        29.98R
MOORHEAD       MOSUNNY   66  63  88 S3        29.96R
FERGUS FALLS   CLOUDY    63  63 100 SE6       29.97R
MORRIS MN      DRIZZLE   63  57  82 SE8       29.96R
STAPLES        PTSUNNY   61  55  82 S5        29.99R
$$
  *****  WEATHER ELSEWHERE ACROSS MINNESOTA  *****

CITY           SKY/WX    TMP DP  RH WIND       PRES   REMARKS
DULUTH         MOSUNNY   56  50  80 S3        30.02S
INTRNTL FALLS  SUNNY     56  53  90 S5        29.99R
ELY            PTSUNNY   54  48  82 CALM      30.02R
CLOQUET        MOSUNNY   55  52  88 E3        30.02S
WHEATON        LGT RAIN  61  57  88 SE7       29.97R
BRAINERD       MOSUNNY   58  53  84 CALM      30.00S
HIBBING        SUNNY     53  50  89 SE3       30.02S
ALEXANDRIA     CLOUDY    61  59  93 SE5       29.99S
SAINT CLOUD    CLOUDY    59  52  77 E3        29.99S
MINNEAPOLIS    CLOUDY    60  48  64 E8        29.99F
$$

  *****  WEATHER ACROSS SOUTH DAKOTA  *****

CITY           SKY/WX    TMP DP  RH WIND       PRES   REMARKS
SIOUX FALLS    CLOUDY    65  62  90 NE5       29.95R FOG
BROOKINGS      CLOUDY    63  59  88 E8        29.95S
WATERTOWN      CLOUDY    64  60  87 E8        29.93S FOG
HURON          LGT RAIN  67  65  93 SE9       29.89R FOG
SISSETON         N/A     63  62  97 S5        29.94R
ABERDEEN       CLOUDY    66  64  93 E6        29.92R FOG
MITCHELL       PTSUNNY   67  66  97 E9        29.90R FOG
PIERRE         SUNNY     66  64  93 E6        29.86S
MOBRIDGE       CLOUDY    68  66  93 E7        29.89R FOG
RAPID CITY     SUNNY     70  60  70 NW7       29.95R
$$

  *****  SOME WEATHER IN NEARBY STATES *****

CITY           SKY/WX    TMP DP  RH WIND       PRES   REMARKS
GLASGOW MT     MOSUNNY   63  58  83 NE5       29.98S HAZE
GREAT FALLS MT SUNNY     62  54  74 SW6       30.06S
CHEYENNE WY    MOSUNNY   66  53  63 NW9       30.19R
SCOTTSBLUFF NE SUNNY     66  59  78 NW6       30.03S
OMAHA NE       PTSUNNY   70  66  87 E6        29.86R
DES MOINES IA  PTSUNNY   69  61  75 NE7       29.92R
DAVENPORT IA   CLOUDY    62  60  93 NE10      29.94R FOG
CHICAGO IL     CLOUDY    57  51  80 NE3       29.97S
EAU CLAIRE WI  MOSUNNY   54  49  83 NE3       30.02R
LA CROSSE WI   SUNNY     59  50  72 NE9       30.00R
$$

  *****  SOME NATIONAL WEATHER *****

CITY           SKY/WX    TMP DP  RH WIND       PRES   REMARKS
LA GUARDIA NY  PTSUNNY   72  64  76 SW12G20   29.78R
RALEIGH NC     PTSUNNY   74  69  85 SW7       29.97R
ATLANTA GA     PTSUNNY   72  67  84 W7        30.06S
NEW ORLEANS LA PTSUNNY   80  69  69 S3        30.10R
OKLAHOMA CITY  MOSUNNY   76  70  82 S12       29.94S
ALBUQUERQUE NM MOSUNNY   72  49  44 SE9       30.21F
SALT LAKE CITY MOCLDY    78  53  41 SE7       30.07R
LOS ANGELES CA MOCLDY    68  63  84 NW6       29.89F
BOISE ID       CLEAR     71  52  50 CALM      30.00R
SEATTLE WA     CLEAR     65  53  65 N12       30.06R
$$

*** WEATHER ACROSS MANITOBA...SASKATCHEWAN AND ONTARIO ***
                ***ONTARIO***

CITY           SKY/WX    TMP DP  RH WIND       PRES   REMARKS
GERALDTON      MOSUNNY   54  46  76 VRB2      30.01S
THUNDER BAY    MOSUNNY   52  48  87 SW3       30.02S
SIOUX LOOKOUT  CLOUDY    61  54  77 SW5       29.98
TORONTO        PTSUNNY   66  59  77 NW10G17   29.74R
BIG TROUT LK   PTSUNNY   57  45  62 S5        29.91S
PICKLE LAKE    LGT RAIN  52  50  93 SE6       29.95S
DRYDEN         SUNNY     61  54  77 SW7       29.98R
KENORA         PTSUNNY   63  59  88 S6        29.97R
$$
                *** MANITOBA***

CITY           SKY/WX    TMP DP  RH WIND       PRES   REMARKS
BRANDON        FOG       57  57 100 CALM      29.96R VSB 1/4
DAUPHIN        SUNNY     63  61  94 SW7       29.93S
ISLAND LAKE    MOSUNNY   63  55  77 W5        29.90R
PILOT MOUND      N/A     59  57  94 SE2         N/A
THE PAS          N/A     61  61 100 VRB2      29.87R FOG
THOMPSON       MOSUNNY   59  55  88 CALM      29.91R
WINNIPEG       SUNNY     63  61  94 VRB2      29.94S
LYNN LAKE        N/A    N/A N/A N/A MISG        N/A
CHURCHILL      MOSUNNY   59  46  63 SW5       29.92R
$$
                ***SASKATCHEWAN***

CITY           SKY/WX    TMP DP  RH WIND       PRES   REMARKS
ESTEVAN        FOG       61  61 100 CALM      29.97S VSB 1/8
KINDERSLEY     CLOUDY    59  55  88 S2        30.00R SMOKE
LLOYDMINSTER   LGT RAIN  61  59  94 S6        29.97S SMOKE
PRINCE ALBERT  CLOUDY    59  59 100 W3        29.91S
REGINA         FOG       54  54 100 W5        29.98S VSB 1
YORKTON        PTSUNNY   59  59 100 SW3       29.95S FOG
N. BATTLEFORD  PTSUNNY   61  59  94 NE8       29.98S FOG
LA RONGE         N/A     63  61  94 NE7       29.92R SMOKE
SASKATOON      MOSUNNY   59  59 100 W5        29.97R SMOKE
SWIFT CURRENT  MOSUNNY   59 N/A N/A SW6       30.01R VSB 3/4
$$
NOTE: THESE ARE AUTOMATED STATIONS WITH LIMITED QUALITY CONTROL
      "FAIR" INDICATES FEW OR NO CLOUDS BELOW 12,000 FEET WITH NO
      SIGNIFICANT WEATHER AND/OR OBSTRUCTIONS TO VISIBILITY.
      SKY/WX - SKY CONDITION AND SIGNIFICANT WEATHER.
      TMP - AIR TEMPERATURE.    DP   - DEWPOINT TEMPERATURE.
      RH  - RELATIVE HUMIDITY.  PRES - PRESSURE.
      HX  - HEAT INDEX.         WCI  - WIND CHILL INDEX.
$



USA.gov is the U.S. government's official web portal to all federal, state and local government web resources and services.